Weather History for Pembrey Sands, United Kingdom

Change the Weather History Date:

Friday, November 23, 2012

  Actual Average (EGFF) Record (EGFF)
Temperature  
Mean Temperature 42 °F -  
Max Temperature 52 °F 48 °F 55 °F (2006)
Min Temperature 33 °F 39 °F 28 °F (2007)
Degree Days  
Heating Degree Days 22    
Moisture  
Dew Point 39 °F    
Average Humidity 85    
Maximum Humidity 100    
Minimum Humidity 66    
Precipitation  
Precipitation 0.02 in - - ()
Sea Level Pressure  
Sea Level Pressure 29.83 in    
Wind  
Wind Speed 8 mph ()    
Max Wind Speed 24 mph    
Max Gust Speed -    
Visibility 6.5 miles    
Events      
Averages and records for this station are not official NWS values.
T = Trace of Precipitation, MM = Missing Value Source: Averaged Metar Reports

Daily Weather History Graph

Daily Weather History Graph

Search for Another Location

Airport:

Trip Planner

Search our weather history database for the weather conditions in past years. The results will help you decide how hot, cold, wet, or windy it might be!

Date:

Astronomy

Nov. 23, 2012 Rise Set
Actual Time 7:50 AM GMT 4:17 PM GMT
Civil Twilight 7:11 AM GMT 4:55 PM GMT
Nautical Twilight 6:30 AM GMT 5:37 PM GMT
Astronomical Twilight 5:50 AM GMT 6:17 PM GMT
Moon 1:52 PM GMT (11/23) 2:24 AM GMT (11/23)
Length of Visible Light 9h 43m
Length of Day
8h 27m
Waxing Gibbous, 78% of the Moon is Illuminated
Nov 23
Waxing Gibbous
Nov 28
Full
Dec 6
Last Quarter
Dec 13
New
Dec 20
First Quarter

Hourly Weather History & Observations

Time (GMT) Temp. Windchill Dew Point Humidity Pressure Visibility Wind Dir Wind Speed Gust Speed Precip Events Conditions
12:50 AM 50.0 °F - 42.8 °F 76% 29.65 in 4.3 mi West 16.1 mph - N/A   Partly Cloudy
1:50 AM 50.0 °F - 42.8 °F 76% 29.68 in 5.0 mi West 15.0 mph - N/A   Partly Cloudy
2:50 AM 48 °F - 43 °F 77% 29.70 in 3 mi West 8.1 mph - -   Partly Cloudy
2:50 AM 48.2 °F - 42.8 °F 82% 29.68 in 3.1 mi West 8.1 mph - N/A   Scattered Clouds
3:50 AM 42.8 °F 41.1 °F 37.4 °F 81% 29.71 in 6.2 mi NNW 3.5 mph - N/A   Partly Cloudy
4:50 AM 37.4 °F 34.9 °F 33.8 °F 87% 29.71 in 6.2 mi East 3.5 mph - N/A   Unknown
5:50 AM 36 °F - 34 °F 90% 29.75 in 9 mi SSE 1.2 mph - -  
5:50 AM 35.6 °F - 33.8 °F 93% 29.74 in 6.2 mi SSE 1.2 mph - N/A   Unknown
6:50 AM 39.2 °F 35.0 °F 37.4 °F 93% 29.74 in 6.2 mi ESE 5.8 mph - N/A   Partly Cloudy
7:50 AM 37.4 °F 33.8 °F 35.6 °F 93% 29.77 in 6.2 mi SE 4.6 mph - N/A   Partly Cloudy
8:50 AM 38 °F - 38 °F 98% 29.81 in 11 mi West 8.1 mph - -   Mostly Cloudy
8:50 AM 39.2 °F 33.6 °F 37.4 °F 93% 29.80 in 6.2 mi West 8.1 mph - N/A   Mostly Cloudy
9:50 AM 46.4 °F 43.5 °F 42.8 °F 87% 29.83 in 6.2 mi West 5.8 mph - N/A   Mostly Cloudy
10:50 AM 46.4 °F 45.2 °F 41.0 °F 81% 29.83 in 6.2 mi NNE 3.5 mph - N/A   Scattered Clouds
11:50 AM 50 °F - 43 °F 69% 29.85 in 6 mi SSW 5.8 mph - -   Scattered Clouds
11:50 AM 50.0 °F - 42.8 °F 76% 29.83 in 6.2 mi SSW 5.8 mph - N/A   Partly Cloudy
12:50 PM 51.8 °F - 44.6 °F 76% 29.83 in 6.2 mi SW 16.1 mph - N/A   Scattered Clouds
1:50 PM 50.0 °F - 44.6 °F 82% 29.86 in 5.6 mi SW 24.2 mph - N/A   Partly Cloudy
2:50 PM 51 °F - 43 °F 66% 29.87 in 6 mi WSW 17.3 mph - -   Scattered Clouds
2:50 PM 51.8 °F - 42.8 °F 71% 29.86 in 6.2 mi WSW 17.3 mph - N/A   Partly Cloudy
3:50 PM 50.0 °F - 41.0 °F 71% 29.86 in 6.2 mi West 16.1 mph - N/A   Partly Cloudy
4:50 PM 50.0 °F - 42.8 °F 76% 29.89 in 6.2 mi WSW 13.8 mph - N/A   Partly Cloudy
5:50 PM 42 °F - 38 °F 83% 29.91 in 9 mi West 2.3 mph - -  
5:50 PM 42.8 °F - 39.2 °F 87% 29.89 in 6.2 mi West 2.3 mph - N/A   Unknown
6:50 PM 37.4 °F - 35.6 °F 93% 29.92 in 6.2 mi NNW 1.2 mph - N/A   Unknown
7:50 PM 37.4 °F 34.9 °F 37.4 °F 100% 29.92 in 6.2 mi ENE 3.5 mph - N/A   Scattered Clouds
8:50 PM 39 °F - 38 °F 93% 29.95 in 12 mi East 5.8 mph - -  
8:50 PM 39.2 °F 35.0 °F 37.4 °F 93% 29.95 in 6.2 mi East 5.8 mph - N/A   Unknown
9:50 PM 39.2 °F 35.0 °F 37.4 °F 93% 29.95 in 6.2 mi East 5.8 mph - N/A   Unknown
10:50 PM 33.8 °F 28.6 °F 33.8 °F 100% 29.98 in 5.0 mi ENE 5.8 mph - N/A   Unknown
11:50 PM 39 °F - 38 °F 92% 29.98 in 10 mi East 5.8 mph - -  
11:50 PM 39.2 °F 35.0 °F 37.4 °F 93% 29.98 in 6.2 mi East 5.8 mph - N/A   Unknown